weather.gov     
National Weather Service

Terminal Aerodrome Forecast
NWS Homepage
This page is being discontinued on March 12, 2014.
The same data is available at this site. Please update your bookmarks.
Thank you, and we apologize for the inconvenience.
Please send an email to SR-SRH.Webmaster@noaa.gov with any concerns.


Current Version
Previous Version:    01  02  03  04  05  06  07  08  09  10  11  12  13  14  15  16  17  18  19  20  21  22  23  24  25  26  27  28  29  30  
   31  32  33  34  35  36  37  38  39  40  41  42  43  44  45  46  47  48  49  50  51  52  53  54  55  56  57  58  59  
[Printable]
873
FTUS44 KFWD 222100 AAA
TAFFTW
TAF AMD
KFTW 222101Z 2221/2318 13012KT 2SM -TSRA BR OVC008CB
     FM222300 13012KT 3SM TSRA SCT008 OVC010CB
     FM230300 13008KT 2SM SHRA VCTS OVC005CB
     FM230600 21007KT 2SM BR BKN025
     FM230900 21008KT 4SM BR SCT015 SCT250
     FM231600 25017G27KT P6SM FEW040=


U.S. Dept. of Commerce
NOAA National Weather Service
1325 East West Highway
Silver Spring, MD 20910
E-mail: w-nws.webmaster@noaa.gov
Page last modified: May 16, 2007
NATIONAL WEATHER SERVICE: for Safety, for Work, for Fun - FOR LIFE